Location: Downe
(51.3167°N, 0.0500°E)
Time: 03:24:41
(UTC+00:00)

USA 234 - Pass Details

Date: 17 November 2019
Orbit: 1099 x 1108 km, 123.0° (Epoch: 09 December)

Event Time Altitude Azimuth Distance (km) Brightness Sun altitude
Rises 05:39:03 0° 95° (E) 3,914 8.0 -15.5°
Reaches altitude 10° 05:41:33 10° 92° (E) 2,957 6.9 -15.1°
Maximum altitude 05:47:57 62° 14° (NNE) 1,230 3.5 -14.2°
Enters shadow 05:53:08 17° 298° (WNW) 2,505 4.5 -13.4°
